Regional Weather Roundup
Issued by NWS New Orleans/Baton Rouge, LA

Home | Current Version | Previous Version | Text Only | Print | Product List | Glossary On
Versions: 1 2 3 4 5 6 7 8 9 10 11 12 13 14 15 16 17 18 19 20 21 22 23 24 25 26 27 28 29 30 31 32 33 34 35 36 37 38 39 40 41 42 43 44 45 46 47 48 49 50
321
ASUS44 KLIX 270413
RWRLIX
NEW ORLEANS REGIONAL WEATHER ROUNDUP
NATIONAL WEATHER SERVICE NEW ORLEANS LA
1100 PM CDT SUN MAR 26 2017

NOTE: "FAIR" INDICATES FEW OR NO CLOUDS BELOW 12,000 FEET WITH NO
      SIGNIFICANT WEATHER AND/OR OBSTRUCTIONS TO VISIBILITY.
      SKY/WX - SKY CONDITION AND SIGNIFICANT WEATHER.
      TMP - AIR TEMPERATURE.     DP    - DEWPOINT TEMPERATURE.
      RH  - RELATIVE HUMIDITY.   PRES  - PRESSURE.
      HI  - HEAT INDEX.          WCI   - WIND CHILL INDEX.

*  THESE STATIONS ARE NOT NWS OR FAA STATIONS AND ARE NOT UNDER
   NWS QUALITY CONTROL.

LAZ038-040-048-061>063-065>067-069-270500-
SOUTHEAST LOUISIANA

CITY           SKY/WX    TMP DP  RH WIND       PRES   REMARKS
N.O. INTL ARPT CLEAR     70  68  93 SE8       29.99F
N.O. LAKEFRONT CLEAR     72  69  90 SE9       30.00F
N.O. DOWNTOWN*   N/A     72  69  90 S9        30.01S
RESERVE*         N/A     71  69  93 SE7       29.99F
SLIDELL        PTCLDY    70  69  97 SE6       30.00F
BATON ROUGE    PTCLDY    71  65  81 S8        29.97F
BOOTHVILLE     CLOUDY    71  70  96 SE7       30.03F
BELLE CHASSE   CLEAR    N/A N/A N/A SE8       30.00F
BOGALUSA*      NOT AVBL
GALLIANO*      CLOUDY    72  67  84 SE7       30.00F
NEW ROADS*       N/A     68  64  86 SE5       29.96F
GONZALES*      MOCLDY    69  66  88 CALM      29.98S
HAMMOND*       CLEAR     68  63  83 SE6       29.99F
HOUMA*         MOCLDY    71  68  89 SE9       29.99S
PORT FOURCHON* MOCLDY    73  70  88 SE10G18   30.00F

$$

MSZ070-080>082-270500-
SOUTHERN MISSISSIPPI

CITY           SKY/WX    TMP DP  RH WIND       PRES   REMARKS
MCCOMB         PTCLDY    67  63  87 SE8       29.99F
GULFPORT       MOCLDY    72  70  93 SE10      30.02F
BILOXI         MOCLDY    72  70  93 S8        30.03S
PASCAGOULA     MOCLDY    71  67  87 S7        30.04F

$$

COASTAL OBSERVATIONS
LAKE AND NEARSHORE STATIONS

STATION/POSITION TIME  TEMP    WIND        PRES    WAVE
                       AIR SEA DIR/SP/G            HT/PER
                 (UTC) (F)     (DEG/KT/KT) (MB)    (FT/S)
PASCAGOULA       0348   72     150/  7/ 10 1017.0
WAVELAND YACHT   0348   72 73  170/ 10/ 12 1016.2
GRAND ISLE       0348   73 74  160/  6/ 11 1015.9
SOUTHWEST PASS   0348          140/  5/  9   N/A
NEW CANAL        0348   72 72  170/  4/  8 1015.7
SHELL BEACH      0348   71 74  140/ 10/ 12 1016.5

OFFSHORE STATIONS

STATION/POSITION TIME  TEMP    WIND        PRES    WAVE
                       AIR SEA DIR/SP/G            HT/PER
                 (UTC) (F)     (DEG/KT/KT) (MB)    (FT/S)
64 S DAUPHIN ISL 0350   72 73  150/ 14/ 17 1017.6    4/ 8

$$





USA.gov is the U.S. government's official web portal to all federal, state and local government web resources and services.